| time (UTC) | temp F | wind direction | speed knots | gust knots | rain 1hr in | rain 24hr in | rain mn in | humidity % | barometer mb |
| 20260505211519 | 50 | 298 | 0.9 | 6.1 | 0.00 | 0.00 | 0.00 | 73 | 1007.2 |
| 20260505210018 | 50 | 269 | 0.9 | 5.2 | 0.00 | 0.00 | 0.00 | 73 | 1007.1 |
| 20260505204516 | 50 | 244 | 1.7 | 7.8 | 0.00 | 0.00 | 0.00 | 74 | 1007.1 |
| 20260505203020 | 51 | 285 | 0.0 | 5.2 | 0.00 | 0.00 | 0.00 | 74 | 1007.0 |
| 20260505201527 | 51 | 304 | 0.9 | 7.8 | 0.00 | 0.00 | 0.00 | 72 | 1007.0 |
| 20260505200012 | 52 | 297 | 0.0 | 7.0 | 0.00 | 0.00 | 0.00 | 72 | 1006.6 |
| 20260505194506 | 53 | 311 | 0.9 | 8.7 | 0.00 | 0.00 | 0.00 | 69 | 1006.7 |
| 20260505193001 | 55 | 294 | 0.9 | 9.6 | 0.00 | 0.00 | 0.00 | 61 | 1006.3 |
| 20260505191611 | 57 | 273 | 2.6 | 16.5 | 0.00 | 0.00 | 0.00 | 53 | 1006.1 |
| 20260505190054 | 57 | 262 | 2.6 | 12.2 | 0.00 | 0.00 | 0.00 | 53 | 1005.6 |
| 20260505184552 | 58 | 234 | 0.9 | 9.6 | 0.00 | 0.00 | 0.00 | 51 | 1005.7 |
| 20260505183049 | 59 | 266 | 1.7 | 10.4 | 0.00 | 0.00 | 0.00 | 50 | 1005.3 |
| 20260505181549 | 59 | 259 | 2.6 | 9.6 | 0.00 | 0.00 | 0.00 | 51 | 1005.0 |
| 20260505180049 | 59 | 210 | 1.7 | 11.3 | 0.00 | 0.00 | 0.00 | 52 | 1004.7 |
| 20260505174545 | 59 | 318 | 1.7 | 10.4 | 0.00 | 0.00 | 0.00 | 51 | 1004.5 |
| 20260505173040 | 60 | 260 | 1.7 | 13.9 | 0.00 | 0.00 | 0.00 | 52 | 1004.3 |
| 20260505171543 | 61 | 287 | 1.7 | 14.8 | 0.00 | 0.00 | 0.00 | 53 | 1004.0 |
| 20260505170055 | 61 | 254 | 3.5 | 10.4 | 0.00 | 0.00 | 0.00 | 54 | 1003.8 |
| 20260505164538 | 61 | 256 | 2.6 | 8.7 | 0.00 | 0.00 | 0.00 | 56 | 1003.7 |
| 20260505163036 | 61 | 226 | 0.9 | 14.8 | 0.00 | 0.00 | 0.00 | 57 | 1003.7 |
| 20260505161532 | 60 | 270 | 2.6 | 12.2 | 0.00 | 0.00 | 0.00 | 60 | 1004.0 |
| 20260505153026 | 60 | 222 | 1.7 | 9.6 | 0.00 | 0.00 | 0.00 | 68 | 1002.9 |
| 20260505151524 | 59 | 196 | 2.6 | 13.0 | 0.00 | 0.00 | 0.00 | 71 | 1003.5 |
| 20260505124502 | 61 | 238 | 2.6 | 9.6 | 0.00 | 0.00 | 0.00 | 74 | 1000.3 |
| 20260505123059 | 60 | 248 | 1.7 | 10.4 | 0.00 | 0.00 | 0.00 | 74 | 999.8 |
| 20260505121625 | 60 | 245 | 1.7 | 7.0 | 0.00 | 0.00 | 0.00 | 74 | 999.5 |
| 20260505120056 | 60 | 236 | 1.7 | 10.4 | 0.00 | 0.00 | 0.00 | 75 | 999.7 |
| 20260505114552 | 60 | 200 | 1.7 | 7.8 | 0.00 | 0.00 | 0.00 | 75 | 999.8 |
| 20260505113048 | 60 | 243 | 2.6 | 7.0 | 0.00 | 0.00 | 0.00 | 75 | 999.6 |
| 20260505111546 | 60 | 209 | 2.6 | 8.7 | 0.00 | 0.00 | 0.00 | 75 | 999.2 |
| 20260505101540 | 60 | 204 | 1.7 | 9.6 | 0.00 | 0.00 | 0.00 | 74 | 998.5 |
| 20260505100036 | 60 | 181 | 1.7 | 8.7 | 0.00 | 0.00 | 0.00 | 73 | 998.5 |
| 20260505094536 | 60 | 218 | 2.6 | 13.0 | 0.00 | 0.00 | 0.00 | 73 | 998.2 |
| 20260505093040 | 60 | 162 | 2.6 | 7.0 | 0.00 | 0.00 | 0.00 | 73 | 998.1 |
| 20260505091532 | 60 | 199 | 1.7 | 7.0 | 0.00 | 0.00 | 0.00 | 73 | 998.3 |
| 20260505090048 | 60 | 200 | 2.6 | 8.7 | 0.00 | 0.00 | 0.00 | 74 | 998.1 |
| 20260505084530 | 60 | 231 | 0.9 | 7.8 | 0.00 | 0.00 | 0.00 | 73 | 998.1 |
| 20260505083030 | 60 | 208 | 2.6 | 5.2 | 0.00 | 0.00 | 0.00 | 73 | 998.0 |
| 20260505081531 | 60 | 205 | 1.7 | 8.7 | 0.00 | 0.00 | 0.00 | 73 | 998.4 |
| 20260505080024 | 60 | 194 | 2.6 | 8.7 | 0.00 | 0.00 | 0.00 | 72 | 998.5 |
| 20260505074523 | 61 | 202 | 2.6 | 9.6 | 0.00 | 0.00 | 0.00 | 71 | 998.5 |
| 20260505073027 | 61 | 223 | 1.7 | 12.2 | 0.00 | 0.00 | 0.00 | 71 | 998.6 |
| 20260505071520 | 61 | 224 | 2.6 | 7.0 | 0.00 | 0.00 | 0.00 | 69 | 998.7 |
| 20260505070018 | 62 | 226 | 2.6 | 8.7 | 0.00 | 0.00 | 0.00 | 69 | 998.6 |
| 20260505064517 | 62 | 259 | 1.7 | 9.6 | 0.00 | 0.00 | 0.00 | 68 | 998.5 |
| 20260505063014 | 62 | 203 | 3.5 | 10.4 | 0.00 | 0.00 | 0.00 | 68 | 998.8 |
| 20260505061511 | 62 | 212 | 2.6 | 10.4 | 0.00 | 0.00 | 0.00 | 68 | 998.9 |
| 20260505060022 | 62 | 201 | 2.6 | 12.2 | 0.00 | 0.00 | 0.00 | 67 | 999.1 |
| 20260505054509 | 62 | 225 | 2.6 | 10.4 | 0.00 | 0.00 | 0.00 | 66 | 999.3 |
| 20260505053005 | 62 | 229 | 1.7 | 8.7 | 0.00 | 0.00 | 0.00 | 65 | 999.4 |
| 20260505051506 | 62 | 207 | 1.7 | 9.6 | 0.00 | 0.00 | 0.00 | 65 | 999.3 |
| 20260505041556 | 63 | 220 | 0.9 | 9.6 | 0.00 | 0.00 | 0.00 | 65 | 999.3 |
| 20260505040055 | 63 | 200 | 1.7 | 8.7 | 0.00 | 0.00 | 0.00 | 64 | 999.2 |
| 20260505034552 | 63 | 242 | 2.6 | 11.3 | 0.00 | 0.00 | 0.00 | 62 | 999.4 |
| 20260505033110 | 63 | 224 | 2.6 | 11.3 | 0.00 | 0.00 | 0.00 | 60 | 999.6 |
| 20260505031550 | 63 | 206 | 1.7 | 9.6 | 0.00 | 0.00 | 0.00 | 58 | 999.7 |
| 20260505030049 | 64 | 168 | 0.9 | 10.4 | 0.00 | 0.00 | 0.00 | 56 | 999.8 |
| 20260505024547 | 64 | 202 | 1.7 | 7.8 | 0.00 | 0.00 | 0.00 | 54 | 1000.1 |
| 20260505023058 | 64 | 209 | 1.7 | 7.8 | 0.00 | 0.00 | 0.00 | 52 | 1000.1 |
| 20260505021547 | 64 | 184 | 2.6 | 7.0 | 0.00 | 0.00 | 0.00 | 51 | 1000.3 |
| 20260505020051 | 64 | 208 | 0.9 | 7.0 | 0.00 | 0.00 | 0.00 | 49 | 1000.5 |
| 20260505014546 | 65 | 192 | 2.6 | 9.6 | 0.00 | 0.00 | 0.00 | 47 | 1000.3 |
| 20260505013045 | 65 | 189 | 1.7 | 8.7 | 0.00 | 0.00 | 0.00 | 45 | 1000.3 |
| 20260505011547 | 65 | 179 | 1.7 | 7.0 | 0.00 | 0.00 | 0.00 | 44 | 1000.1 |
| 20260505010045 | 66 | 194 | 1.7 | 8.7 | 0.00 | 0.00 | 0.00 | 42 | 1000.1 |
| 20260505004549 | 66 | 182 | 2.6 | 9.6 | 0.00 | 0.00 | 0.00 | 41 | 1000.0 |
| 20260505003043 | 67 | 186 | 1.7 | 7.8 | 0.00 | 0.00 | 0.00 | 40 | 999.9 |
| 20260505001542 | 67 | 232 | 1.7 | 9.6 | 0.00 | 0.00 | 0.00 | 39 | 1000.1 |
| 20260505000044 | 68 | 209 | 1.7 | 9.6 | 0.00 | 0.00 | 0.00 | 38 | 1000.3 |
| 20260504234603 | 68 | 191 | 3.5 | 14.8 | 0.00 | 0.00 | 0.00 | 38 | 1000.6 |
| 20260504233038 | 69 | 238 | 2.6 | 12.2 | 0.00 | 0.00 | 0.00 | 37 | 1000.8 |
| 20260504231549 | 69 | 173 | 2.6 | 20.0 | 0.00 | 0.00 | 0.00 | 36 | 1000.6 |
| 20260504230037 | 70 | 171 | 1.7 | 25.2 | 0.00 | 0.00 | 0.00 | 38 | 1000.7 |
| 20260504224537 | 70 | 173 | 2.6 | 12.2 | 0.00 | 0.00 | 0.00 | 37 | 1000.9 |
| 20260504223038 | 71 | 192 | 3.5 | 13.9 | 0.00 | 0.00 | 0.00 | 36 | 1000.8 |
| 20260504221536 | 71 | 184 | 2.6 | 17.4 | 0.00 | 0.00 | 0.00 | 38 | 1000.8 |
| 20260504220035 | 71 | 149 | 5.2 | 13.9 | 0.00 | 0.00 | 0.00 | 38 | 1000.9 |
| 20260504214539 | 71 | 183 | 7.0 | 20.0 | 0.00 | 0.00 | 0.00 | 37 | 1000.9 |
| 20260504213033 | 73 | 179 | 4.3 | 16.5 | 0.00 | 0.00 | 0.00 | 35 | 1000.9 |